Location: Unspecified
(33.5613°N, 0.0000°E)
Time: 07:34:00
(UTC+00:00)

SENTINEL-2C - Visible Passes

Search period start: 04 April 2026 00:00
Search period end: 14 April 2026 00:00
Orbit: 788 x 790 km, 98.6° (Epoch: 29 March)

Date Brightness Start Highest point End Pass type
(mag) Time Alt. Az. Time Alt. Az. Time Alt. Az.
4 Apr ? 21:29:44 13° N 21:29:44 13° N 21:30:23 10° N visible
5 Apr ? 20:59:26 10° NNE 20:59:26 10° NNE 20:59:33 10° NNE visible
5 Apr ? 22:40:07 10° NNW 22:40:07 10° NNW 22:40:12 10° NNW visible
6 Apr ? 22:09:48 14° NNW 22:09:48 14° NNW 22:10:33 10° NNW visible
7 Apr ? 21:39:30 15° N 21:39:30 15° N 21:40:29 10° N visible
8 Apr ? 21:09:11 13° NNE 21:09:11 13° NNE 21:09:54 10° NNE visible
8 Apr ? 22:49:52 10° NNW 22:49:52 10° NNW 22:49:56 10° NNW visible
9 Apr ? 22:19:33 15° NNW 22:19:33 15° NNW 22:20:27 10° NNW visible
10 Apr ? 21:49:15 18° N 21:49:15 18° N 21:50:32 10° N visible
11 Apr ? 21:18:57 16° NNE 21:18:57 16° NNE 21:20:09 10° NNE visible
12 Apr ? 20:48:38 11° NE 20:48:38 11° NE 20:48:57 10° NNE visible
12 Apr ? 22:29:19 16° NNW 22:29:19 16° NNW 22:30:18 10° NNW visible
13 Apr ? 21:59:01 20° N 21:59:01 20° N 22:00:31 10° N visible
